VA3JLF-1 Weather Reports


Display with metric or nautical units.
time (UTC)temp
F
wind
direction
speed
MPH
gust
MPH
rain 1hr
in
rain 24hr
in
rain mn
in
humidity
%
barometer
mb
20260510094907 44 329 2.0 6.0 0.00 0.21 0.00 96 1006.0
20260510093907 44 324 2.0 6.0 0.00 0.21 0.00 95 1005.6
20260510092907 44 312 2.0 6.0 0.00 0.21 0.00 94 1005.5
20260510091908 45 309 2.0 6.0 0.00 0.21 0.00 94 1005.5
20260510090909 45 311 2.0 6.0 0.00 0.21 0.00 95 1005.5
20260510085908 45 329 2.0 7.0 0.00 0.21 0.00 97 1005.4
20260510084907 45 333 2.0 7.0 0.00 0.21 0.00 97 1005.2
20260510083908 44 322 2.0 6.0 0.00 0.21 0.00 99 1005.1
20260510082907 44 325 1.0 5.0 0.00 0.21 0.00 99 1004.8
20260510081907 44 340 2.0 5.0 0.00 0.21 0.00 99 1005.1
20260510080907 45 341 2.0 6.0 0.00 0.21 0.00 99 1004.7
20260510074907 45 327 2.0 5.0 0.00 0.20 0.00 99 1004.7
20260510073907 45 347 2.0 5.0 0.00 0.20 0.00 99 1004.4
20260510072907 45 324 1.0 4.0 0.00 0.20 0.00 99 1004.3
20260510071908 45 348 1.0 5.0 0.00 0.20 0.00 99 1004.2
20260510070909 45 325 2.0 5.0 0.00 0.20 0.00 99 1003.9
20260510065908 45 322 2.0 5.0 0.00 0.20 0.00 99 1004.3
20260510064908 45 325 2.0 5.0 0.00 0.20 0.00 99 1004.4
20260510063908 45 307 1.0 4.0 0.00 0.20 0.00 99 1004.1
20260510062909 45 313 2.0 4.0 0.00 0.20 0.00 99 1003.6
20260510061908 44 316 2.0 5.0 0.00 0.20 0.00 99 1003.8
20260510060908 44 349 1.0 4.0 0.00 0.20 0.00 99 1003.6
20260510055908 45 296 1.0 4.0 0.00 0.20 0.00 99 1003.9
20260510054908 45 302 1.0 6.0 0.00 0.20 0.00 99 1003.6
20260510053908 45 302 1.0 4.0 0.00 0.20 0.00 99 1003.8
20260510052908 45 294 2.0 5.0 0.00 0.20 0.00 99 1003.5
20260510051908 46 324 1.0 4.0 0.00 0.20 0.00 99 1003.1
20260510050908 46 322 1.0 4.0 0.00 0.20 0.00 99 1003.3
20260510045908 47 313 1.0 3.0 0.00 0.20 0.00 99 1002.2
20260510044908 47 302 1.0 5.0 0.00 0.20 0.00 99 1003.1
20260510043908 47 304 1.0 5.0 0.00 0.20 0.00 99 1003.2
20260510042908 47 320 1.0 4.0 0.00 0.20 0.00 99 1002.7
20260510041909 47 322 1.0 5.0 0.00 0.20 0.00 99 1002.6
20260510040908 47 314 1.0 6.0 0.00 0.20 0.00 99 1002.7
20260510035908 46 315 1.0 6.0 0.00 0.20 0.20 99 1002.5
20260510034908 47 315 1.0 4.0 0.00 0.20 0.20 99 1002.4
20260510033907 47 304 1.0 4.0 0.00 0.20 0.20 99 1002.3
20260510032909 47 311 1.0 5.0 0.01 0.20 0.20 99 1002.2
20260510031908 47 339 1.0 4.0 0.02 0.20 0.20 99 1002.1
20260510030909 47 302 1.0 6.0 0.03 0.20 0.20 99 1001.8
20260510025908 47 296 1.0 4.0 0.04 0.20 0.20 99 1001.5
20260510024908 48 301 2.0 5.0 0.06 0.20 0.20 99 1001.9
20260510023908 48 303 2.0 8.0 0.06 0.20 0.20 99 1001.8
20260510022908 48 290 2.0 5.0 0.07 0.19 0.19 99 1002.2
20260510021908 49 315 1.0 4.0 0.08 0.19 0.19 99 1002.0
20260510020908 49 318 1.0 4.0 0.08 0.17 0.17 99 1001.9
20260510015908 49 308 2.0 5.0 0.09 0.16 0.16 99 1001.7
20260510014908 50 16 2.0 5.0 0.09 0.15 0.15 99 1001.6
20260510013908 50 16 1.0 4.0 0.11 0.14 0.14 99 1001.5
20260510012907 50 16 1.0 4.0 0.12 0.13 0.13 99 1001.3
20260510011908 50 33 1.0 4.0 0.11 0.11 0.11 99 1001.3
20260510010908 50 12 1.0 4.0 0.09 0.09 0.09 99 1001.0
20260510005908 50 45 1.0 4.0 0.07 0.07 0.07 99 1001.3
20260510004907 50 30 1.0 4.0 0.06 0.06 0.06 99 1001.0
20260510003911 50 334 2.0 14.0 0.03 0.03 0.03 98 1001.6
20260510002909 53 285 2.0 14.0 0.01 0.01 0.01 92 1001.9
20260510001907 55 229 0.0 3.0 0.00 0.00 0.00 84 999.5
20260510000908 55 244 1.0 3.0 0.00 0.00 0.00 84 999.1
20260509235907 56 242 1.0 4.0 0.00 0.00 0.00 83 999.1
20260509234908 57 239 1.0 5.0 0.00 0.00 0.00 82 999.1
20260509233908 57 245 1.0 5.0 0.00 0.00 0.00 82 999.0
20260509232909 57 231 1.0 4.0 0.00 0.00 0.00 80 999.1
20260509231908 58 233 1.0 5.0 0.00 0.00 0.00 80 999.1
20260509230907 58 217 1.0 4.0 0.00 0.00 0.00 80 999.1
20260509225908 58 264 1.0 4.0 0.00 0.00 0.00 79 999.8
20260509224908 58 257 1.0 4.0 0.00 0.00 0.00 78 999.9
20260509223907 58 240 1.0 5.0 0.00 0.00 0.00 78 1000.1
20260509222910 59 222 1.0 5.0 0.00 0.00 0.00 79 999.9
20260509221908 59 231 2.0 6.0 0.00 0.00 0.00 78 1000.0
20260509220908 59 235 1.0 5.0 0.00 0.00 0.00 78 999.9
20260509215908 60 255 1.0 7.0 0.00 0.00 0.00 76 999.9
20260509214908 60 241 1.0 7.0 0.00 0.00 0.00 76 1000.0
20260509213907 60 242 1.0 4.0 0.00 0.00 0.00 76 1000.0
20260509212907 60 215 1.0 6.0 0.00 0.00 0.00 75 1000.2
20260509211908 60 150 1.0 5.0 0.00 0.00 0.00 74 1000.0
20260509210908 62 143 1.0 8.0 0.00 0.00 0.00 73 1000.0
20260509205908 61 111 2.0 7.0 0.00 0.00 0.00 73 999.9
20260509204909 61 76 2.0 7.0 0.00 0.00 0.00 73 1000.0
20260509203908 63 78 2.0 8.0 0.00 0.00 0.00 72 1000.1
20260509202907 63 30 2.0 7.0 0.00 0.00 0.00 70 1000.4
20260509201908 64 14 2.0 7.0 0.00 0.00 0.00 69 1000.3
20260509200907 63 28 2.0 10.0 0.00 0.00 0.00 70 1000.6
20260509195908 63 56 2.0 7.0 0.00 0.00 0.00 70 1000.9
20260509194907 64 69 2.0 7.0 0.00 0.00 0.00 68 1001.0
20260509193908 62 328 2.0 12.0 0.00 0.00 0.00 70 1001.1
20260509192908 63 30 2.0 7.0 0.00 0.00 0.00 70 1001.3
20260509191907 63 341 2.0 8.0 0.00 0.00 0.00 70 1001.3
20260509190908 62 67 3.0 9.0 0.00 0.00 0.00 66 1001.5
20260509185907 62 186 3.0 11.0 0.00 0.00 0.00 67 1001.8
20260509184907 62 94 2.0 10.0 0.00 0.00 0.00 69 1001.9
20260509183907 62 262 2.0 9.0 0.00 0.00 0.00 71 1001.8
20260509182907 61 135 3.0 7.0 0.00 0.00 0.00 72 1002.2
20260509181907 62 104 2.0 7.0 0.00 0.00 0.00 69 1002.3
20260509180908 61 91 2.0 7.0 0.00 0.00 0.00 70 1002.4
20260509175907 62 24 2.0 7.0 0.00 0.00 0.00 71 1002.6
20260509174909 61 309 2.0 7.0 0.00 0.00 0.00 74 1002.7
20260509173907 61 354 2.0 6.0 0.00 0.00 0.00 72 1002.8
20260509172908 60 28 2.0 8.0 0.00 0.00 0.00 74 1002.6
20260509171907 61 68 2.0 6.0 0.00 0.00 0.00 72 1002.7
20260509170909 61 338 2.0 10.0 0.00 0.00 0.00 73 1002.6
20260509165908 60 329 2.0 8.0 0.00 0.00 0.00 70 1002.7
20260509164909 61 360 2.0 7.0 0.00 0.00 0.00 69 1002.7
20260509163908 61 6 2.0 6.0 0.00 0.00 0.00 73 1003.1
20260509162908 60 8 2.0 6.0 0.00 0.00 0.00 70 1003.4
20260509161907 59 40 2.0 6.0 0.00 0.00 0.00 73 1003.3
20260509160909 58 354 2.0 5.0 0.00 0.00 0.00 73 1003.5
20260509155907 58 27 2.0 6.0 0.00 0.00 0.00 71 1003.8
20260509154909 58 16 2.0 6.0 0.00 0.00 0.00 73 1003.8
20260509153907 57 91 2.0 6.0 0.00 0.00 0.00 75 1003.9
20260509152907 57 49 2.0 5.0 0.00 0.00 0.00 72 1004.1
20260509151907 56 122 2.0 7.0 0.00 0.00 0.00 72 1004.4
20260509150909 56 310 2.0 7.0 0.00 0.00 0.00 74 1004.5
20260509145907 56 353 2.0 5.0 0.00 0.00 0.00 73 1004.2
20260509144909 55 90 2.0 5.0 0.00 0.00 0.00 74 1004.4
20260509143907 57 164 2.0 6.0 0.00 0.00 0.00 71 1004.2
20260509142907 55 194 2.0 10.0 0.00 0.00 0.00 73 1004.3
20260509141908 54 214 2.0 8.0 0.00 0.00 0.00 75 1004.5
20260509140907 53 220 2.0 7.0 0.00 0.00 0.00 74 1004.7
20260509135908 52 206 2.0 8.0 0.00 0.00 0.00 76 1004.8
20260509134907 51 197 2.0 7.0 0.00 0.00 0.00 76 1004.8
20260509133907 50 178 2.0 8.0 0.00 0.00 0.00 76 1005.0
20260509132907 50 184 2.0 9.0 0.00 0.00 0.00 75 1005.0
20260509131907 50 147 2.0 8.0 0.00 0.00 0.00 75 1005.3
20260509130908 49 162 2.0 7.0 0.00 0.00 0.00 76 1005.0
20260509125907 49 163 2.0 8.0 0.00 0.00 0.00 77 1005.1
20260509124907 49 160 3.0 8.0 0.00 0.00 0.00 75 1005.2
20260509123907 50 174 1.0 8.0 0.00 0.00 0.00 75 1005.4
20260509122908 49 149 2.0 8.0 0.00 0.00 0.00 75 1005.3
20260509121907 48 143 2.0 7.0 0.00 0.00 0.00 76 1005.5
20260509120908 48 146 1.0 7.0 0.00 0.00 0.00 77 1005.3
20260509115907 48 130 2.0 9.0 0.00 0.00 0.00 76 1005.2
20260509114909 48 138 2.0 6.0 0.00 0.00 0.00 77 1005.4
20260509113910 48 127 2.0 8.0 0.00 0.00 0.00 76 1005.4
20260509113907 48 127 2.0 8.0 0.00 0.00 0.00 76 1005.4
20260509112908 47 126 2.0 8.0 0.00 0.00 0.00 75 1005.3
20260509111907 47 110 2.0 8.0 0.00 0.00 0.00 76 1005.7
20260509110908 46 99 2.0 7.0 0.00 0.00 0.00 76 1005.5
20260509105907 45 92 2.0 10.0 0.00 0.00 0.00 77 1005.3
20260509104909 44 84 2.0 6.0 0.00 0.00 0.00 79 1005.4
20260509104907 44 84 2.0 6.0 0.00 0.00 0.00 79 1005.4
20260509103907 44 76 2.0 9.0 0.00 0.00 0.00 81 1005.4
20260509102912 43 82 2.0 5.0 0.00 0.00 0.00 82 10.0
20260509102907 43 82 2.0 5.0 0.00 0.00 0.00 82 1005.4
20260509101908 43 68 2.0 5.0 0.00 0.00 0.00 82 1005.1
20260509100907 43 84 1.0 5.0 0.00 0.00 0.00 81 1005.1
20260509095908 44 97 3.0 11.0 0.00 0.00 0.00 81 1005.1